Burlington, IA

5:19 AM CST on January 24, 2017 (GMT -0600)
Burlington Regional

Weather History for KBRL - December, 2012

Change the Weather History Date:

Monday, December 31, 2012

  Actual Average Record
Temperature  
Mean Temperature 28 °F 26 °F  
Max Temperature 36 °F 34 °F 62 °F (1965)
Min Temperature 19 °F 18 °F -12 °F (1976)
Degree Days  
Heating Degree Days 37 39  
Month to date heating degree days 954 1114  
Since 1 July heating degree days 2193 2186  
Cooling Degree Days 0 0  
Month to date cooling degree days 0 0  
Year to date cooling degree days 1287 1207  
Moisture  
Dew Point 18 °F    
Average Humidity 69    
Maximum Humidity 78    
Minimum Humidity 59    
Precipitation  
Precipitation T in 0.05 in 0.54 in (2006)
Month to date precipitation 1.43 2.09  
Year to date precipitation 23.82 38.48  
Sea Level Pressure  
Sea Level Pressure 30.14 in    
Wind  
Wind Speed 10 mph (NW)    
Max Wind Speed 16 mph    
Max Gust Speed 21 mph    
Visibility 9 miles    
Events Snow    
T = Trace of Precipitation, MM = Missing Value Source: NWS Daily Summary

Daily Weather History Graph

Daily Weather History Graph

Search for Another Location

Airport or City:

Trip Planner

Search our weather history database for the weather conditions in past years. The results will help you decide how hot, cold, wet, or windy it might be!

Date:

Astronomy

Dec. 31, 2012 Rise Set
Actual Time 7:28 AM CST 4:47 PM CST
Civil Twilight 6:57 AM CST 5:17 PM CST
Nautical Twilight 6:23 AM CST 5:52 PM CST
Astronomical Twilight 5:50 AM CST 6:25 PM CST
Moon 8:19 PM CST (12/31) 9:09 AM CST (12/31)
Length of Visible Light 10h 20m
Length of Day
9h 18m
Waning Gibbous, 90% of the Moon is Illuminated
Dec 31
Waning Gibbous
Jan 4
Last Quarter
Jan 11
New
Jan 18
First Quarter
Jan 26
Full

Hourly Weather History & Observations

Time (CST) Temp. Windchill Dew Point Humidity Pressure Visibility Wind Dir Wind Speed Gust Speed Precip Events Conditions
12:53 AM 35.1 °F 25.2 °F 24.1 °F 64% 30.09 in 10.0 mi SW 16.1 mph - N/A   Clear
1:53 AM 35.1 °F 26.4 °F 24.1 °F 64% 30.09 in 10.0 mi SW 12.7 mph - N/A   Clear
2:53 AM 35.1 °F 25.9 °F 23.0 °F 61% 30.09 in 10.0 mi SW 13.8 mph - N/A   Clear
3:53 AM 36.0 °F 27.1 °F 24.1 °F 62% 30.10 in 10.0 mi SW 13.8 mph - N/A   Partly Cloudy
4:53 AM 36.0 °F 28.5 °F 24.1 °F 62% 30.08 in 10.0 mi WSW 10.4 mph - N/A   Clear
5:53 AM 36.0 °F 30.3 °F 24.1 °F 62% 30.09 in 10.0 mi WSW 6.9 mph - N/A   Mostly Cloudy
6:53 AM 34.0 °F 27.2 °F 25.0 °F 70% 30.12 in 10.0 mi NW 8.1 mph - N/A   Overcast
7:53 AM 30.9 °F 23.5 °F 24.1 °F 76% 30.12 in 10.0 mi NW 8.1 mph - N/A   Overcast
8:53 AM 28.9 °F 19.8 °F 21.0 °F 72% 30.14 in 10.0 mi NW 10.4 mph - N/A   Overcast
9:53 AM 27.0 °F 18.7 °F 19.9 °F 75% 30.16 in 10.0 mi NW 8.1 mph - N/A   Overcast
10:53 AM 26.1 °F 16.8 °F 19.0 °F 75% 30.17 in 10.0 mi NW 9.2 mph - N/A   Overcast
11:24 AM 24.8 °F 15.3 °F 19.4 °F 80% 30.14 in 2.0 mi NNW 9.2 mph - 0.00 in Snow Light Snow
11:29 AM 24.8 °F 15.3 °F 19.4 °F 80% 30.13 in 1.8 mi NW 9.2 mph - 0.00 in Snow Light Snow
11:53 AM 23.0 °F 14.7 °F 18.0 °F 81% 30.16 in 2.5 mi NW 6.9 mph - 0.00 in Snow Light Snow
12:05 PM 23.0 °F 13.9 °F 19.4 °F 86% 30.13 in 1.2 mi NW 8.1 mph - 0.00 in Snow Light Snow
12:36 PM 23.0 °F 11.7 °F 17.6 °F 80% 30.12 in 3.0 mi NW 11.5 mph - 0.00 in Snow Light Snow
12:50 PM 24.8 °F 14.6 °F 17.6 °F 74% 30.11 in 9.0 mi NW 10.4 mph - 0.00 in   Overcast
12:53 PM 24.1 °F 13.7 °F 18.0 °F 77% 30.14 in 10.0 mi NW 10.4 mph - 0.00 in   Overcast
1:53 PM 23.0 °F 12.4 °F 16.0 °F 74% 30.13 in 10.0 mi NNW 10.4 mph - N/A   Overcast
2:53 PM 23.0 °F 13.1 °F 16.0 °F 74% 30.13 in 10.0 mi NNW 9.2 mph - N/A   Overcast
3:53 PM 23.0 °F 14.7 °F 16.0 °F 74% 30.13 in 10.0 mi NNW 6.9 mph - N/A   Overcast
4:53 PM 21.0 °F 12.4 °F 14.0 °F 74% 30.14 in 10.0 mi NNW 6.9 mph - N/A   Overcast
5:53 PM 19.9 °F 10.1 °F 12.9 °F 74% 30.15 in 10.0 mi NNW 8.1 mph - N/A   Overcast
6:53 PM 19.9 °F 7.9 °F 12.0 °F 71% 30.16 in 10.0 mi NNW 11.5 mph - N/A   Overcast
7:53 PM 19.9 °F 10.1 °F 12.0 °F 71% 30.17 in 10.0 mi North 8.1 mph - N/A   Overcast
8:53 PM 19.9 °F 8.6 °F 10.9 °F 68% 30.18 in 10.0 mi North 10.4 mph - N/A   Overcast
9:53 PM 19.0 °F 6.8 °F 10.9 °F 71% 30.19 in 10.0 mi North 11.5 mph - N/A   Overcast
10:53 PM 19.0 °F 8.2 °F 10.9 °F 71% 30.22 in 10.0 mi North 9.2 mph - N/A   Mostly Cloudy
11:53 PM 19.0 °F 9.0 °F 10.0 °F 68% 30.22 in 10.0 mi North 8.1 mph - N/A   Overcast